| time (UTC) | temp F | wind direction | speed MPH | gust MPH | rain 1hr in | rain 24hr in | rain mn in | humidity % | barometer mb |
| 20260831022319 | 59 | 353 | 0.0 | 0.0 | 0.00 | 0.00 | 0.00 | 87 | 1008.6 |
| 20260831021814 | 59 | 354 | 0.0 | 0.0 | 0.00 | 0.00 | 0.00 | 86 | 1008.8 |
| 20260831021313 | 59 | 352 | 0.0 | 0.0 | 0.00 | 0.00 | 0.00 | 87 | 1008.8 |
| 20260831020810 | 60 | 327 | 0.0 | 0.0 | 0.00 | 0.00 | 0.00 | 86 | 1008.6 |
| 20260831020309 | 60 | 347 | 0.0 | 0.0 | 0.00 | 0.00 | 0.00 | 86 | 1008.9 |
| 20260831015804 | 60 | 346 | 0.0 | 1.0 | 0.00 | 0.00 | 0.00 | 85 | 1008.6 |
| 20260831015300 | 60 | 343 | 0.0 | 0.0 | 0.00 | 0.00 | 0.00 | 85 | 1008.6 |
| 20260831014800 | 60 | 351 | 0.0 | 0.0 | 0.00 | 0.00 | 0.00 | 85 | 1008.7 |
| 20260831014254 | 61 | 357 | 0.0 | 0.0 | 0.00 | 0.00 | 0.00 | 85 | 1008.8 |
| 20260831013751 | 61 | 352 | 0.0 | 0.0 | 0.00 | 0.00 | 0.00 | 85 | 1008.9 |
| 20260831013250 | 61 | 339 | 0.0 | 0.0 | 0.00 | 0.00 | 0.00 | 84 | 1008.9 |
| 20260831012745 | 61 | 339 | 0.0 | 0.0 | 0.00 | 0.00 | 0.00 | 85 | 1008.9 |
| 20260831012241 | 61 | 338 | 0.0 | 0.0 | 0.00 | 0.00 | 0.00 | 84 | 1008.6 |
| 20260831011740 | 61 | 344 | 1.0 | 1.0 | 0.00 | 0.00 | 0.00 | 84 | 1008.8 |
| 20260831011236 | 61 | 353 | 0.0 | 0.0 | 0.00 | 0.00 | 0.00 | 84 | 1008.6 |
| 20260831010731 | 61 | 344 | 1.0 | 1.0 | 0.00 | 0.00 | 0.00 | 84 | 1008.7 |
| 20260831010231 | 62 | 348 | 1.0 | 1.0 | 0.00 | 0.00 | 0.00 | 84 | 1008.8 |
| 20260831005726 | 62 | 340 | 1.0 | 1.0 | 0.00 | 0.00 | 0.00 | 84 | 1008.7 |
| 20260831005222 | 62 | 339 | 1.0 | 2.0 | 0.00 | 0.00 | 0.00 | 83 | 1008.8 |
| 20260831004717 | 62 | 339 | 2.0 | 2.0 | 0.00 | 0.00 | 0.00 | 83 | 1009.1 |
| 20260831004214 | 62 | 342 | 1.0 | 1.0 | 0.00 | 0.00 | 0.00 | 83 | 1008.8 |
| 20260831003709 | 62 | 343 | 0.0 | 1.0 | 0.00 | 0.00 | 0.00 | 83 | 1008.6 |
| 20260831003205 | 62 | 353 | 0.0 | 0.0 | 0.00 | 0.00 | 0.00 | 83 | 1008.9 |
| 20260831002703 | 62 | 324 | 2.0 | 2.0 | 0.00 | 0.00 | 0.00 | 83 | 1009.1 |
| 20260831002158 | 62 | 338 | 1.0 | 1.0 | 0.00 | 0.00 | 0.00 | 83 | 1008.8 |
| 20260831001654 | 62 | 352 | 0.0 | 1.0 | 0.00 | 0.00 | 0.00 | 83 | 1008.9 |
| 20260831001154 | 63 | 339 | 2.0 | 2.0 | 0.00 | 0.00 | 0.00 | 82 | 1008.8 |
| 20260831000651 | 63 | 351 | 1.0 | 1.0 | 0.00 | 0.00 | 0.00 | 82 | 1009.1 |
| 20260831000146 | 63 | 354 | 1.0 | 1.0 | 0.00 | 0.00 | 0.00 | 82 | 1009.3 |
| 20260830235645 | 63 | 340 | 1.0 | 1.0 | 0.00 | 0.00 | 0.00 | 83 | 1009.2 |
| 20260830235140 | 63 | 347 | 1.0 | 2.0 | 0.00 | 0.00 | 0.00 | 82 | 1009.2 |
| 20260830234635 | 64 | 330 | 1.0 | 2.0 | 0.00 | 0.00 | 0.00 | 81 | 1009.2 |
| 20260830234131 | 64 | 327 | 1.0 | 1.0 | 0.00 | 0.00 | 0.00 | 81 | 1009.1 |
| 20260830233626 | 64 | 331 | 1.0 | 2.0 | 0.00 | 0.00 | 0.00 | 81 | 1009.1 |
| 20260830233122 | 63 | 329 | 2.0 | 2.0 | 0.00 | 0.00 | 0.00 | 82 | 1009.2 |
| 20260830232618 | 64 | 332 | 0.0 | 0.0 | 0.00 | 0.00 | 0.00 | 80 | 1008.9 |
| 20260830232114 | 64 | 327 | 1.0 | 1.0 | 0.00 | 0.00 | 0.00 | 81 | 1009.2 |
| 20260830231609 | 64 | 332 | 2.0 | 2.0 | 0.00 | 0.00 | 0.00 | 82 | 1009.2 |
| 20260830231108 | 65 | 329 | 1.0 | 2.0 | 0.00 | 0.00 | 0.00 | 80 | 1009.1 |
| 20260830230604 | 64 | 320 | 1.0 | 2.0 | 0.00 | 0.00 | 0.00 | 81 | 1009.3 |
| 20260830230058 | 64 | 331 | 1.0 | 1.0 | 0.00 | 0.00 | 0.00 | 81 | 1009.3 |
| 20260830225554 | 64 | 328 | 2.0 | 2.0 | 0.00 | 0.00 | 0.00 | 81 | 1009.2 |
| 20260830225053 | 64 | 334 | 1.0 | 1.0 | 0.00 | 0.00 | 0.00 | 82 | 1009.2 |
| 20260830224552 | 64 | 338 | 1.0 | 1.0 | 0.00 | 0.00 | 0.00 | 82 | 1009.2 |
| 20260830224049 | 63 | 322 | 2.0 | 2.0 | 0.00 | 0.00 | 0.00 | 83 | 1009.4 |
| 20260830223545 | 63 | 339 | 1.0 | 2.0 | 0.00 | 0.00 | 0.00 | 84 | 1009.4 |
| 20260830223039 | 64 | 335 | 2.0 | 2.0 | 0.00 | 0.00 | 0.00 | 83 | 1009.5 |
| 20260830222534 | 63 | 341 | 2.0 | 2.0 | 0.00 | 0.00 | 0.00 | 84 | 1009.5 |
| 20260830222030 | 64 | 315 | 2.0 | 2.0 | 0.00 | 0.00 | 0.00 | 83 | 1009.7 |
| 20260830221526 | 64 | 344 | 1.0 | 2.0 | 0.00 | 0.00 | 0.00 | 83 | 1009.7 |
| 20260830221022 | 63 | 327 | 3.0 | 5.0 | 0.00 | 0.00 | 0.00 | 83 | 1009.5 |
| 20260830220521 | 64 | 337 | 3.0 | 3.0 | 0.00 | 0.00 | 0.00 | 82 | 1009.5 |
| 20260830220019 | 63 | 319 | 3.0 | 3.0 | 0.00 | 0.00 | 0.00 | 82 | 1009.8 |
| 20260830215514 | 64 | 336 | 3.0 | 3.0 | 0.00 | 0.00 | 0.00 | 83 | 1009.8 |
| 20260830215008 | 64 | 325 | 1.0 | 2.0 | 0.00 | 0.00 | 0.00 | 81 | 1009.7 |
| 20260830214503 | 64 | 337 | 2.0 | 2.0 | 0.00 | 0.00 | 0.00 | 83 | 1009.9 |
| 20260830213958 | 64 | 329 | 3.0 | 3.0 | 0.00 | 0.00 | 0.00 | 83 | 1009.8 |
| 20260830213453 | 64 | 326 | 1.0 | 1.0 | 0.00 | 0.00 | 0.00 | 81 | 1009.8 |
| 20260830212949 | 65 | 350 | 3.0 | 3.0 | 0.00 | 0.00 | 0.00 | 80 | 1009.6 |
| 20260830212444 | 64 | 348 | 2.0 | 2.0 | 0.00 | 0.00 | 0.00 | 82 | 1010.0 |
| 20260830211943 | 65 | 339 | 1.0 | 1.0 | 0.00 | 0.00 | 0.00 | 81 | 1009.9 |
| 20260830211438 | 64 | 315 | 2.0 | 2.0 | 0.00 | 0.00 | 0.00 | 81 | 1009.9 |
| 20260830210933 | 64 | 323 | 3.0 | 3.0 | 0.00 | 0.00 | 0.00 | 81 | 1010.1 |
| 20260830210428 | 65 | 325 | 3.0 | 3.0 | 0.00 | 0.00 | 0.00 | 80 | 1010.0 |
| 20260830205925 | 66 | 318 | 3.0 | 5.0 | 0.00 | 0.00 | 0.00 | 79 | 1010.1 |
| 20260830205424 | 65 | 353 | 1.0 | 2.0 | 0.00 | 0.00 | 0.00 | 79 | 1010.0 |
| 20260830204920 | 65 | 345 | 1.0 | 1.0 | 0.00 | 0.00 | 0.00 | 80 | 1009.9 |
| 20260830204419 | 65 | 309 | 1.0 | 1.0 | 0.00 | 0.00 | 0.00 | 79 | 1009.9 |
| 20260830203914 | 64 | 322 | 3.0 | 3.0 | 0.00 | 0.00 | 0.00 | 82 | 1010.0 |
| 20260830203411 | 65 | 348 | 2.0 | 2.0 | 0.00 | 0.00 | 0.00 | 80 | 1010.0 |
| 20260830202909 | 64 | 348 | 0.0 | 1.0 | 0.00 | 0.00 | 0.00 | 82 | 1010.0 |
| 20260830202404 | 64 | 327 | 1.0 | 2.0 | 0.00 | 0.00 | 0.00 | 81 | 1009.9 |
| 20260830201900 | 63 | 344 | 1.0 | 2.0 | 0.00 | 0.00 | 0.00 | 82 | 1010.0 |
| 20260830201354 | 63 | 336 | 1.0 | 2.0 | 0.00 | 0.00 | 0.00 | 82 | 1010.0 |
| 20260830200850 | 64 | 328 | 2.0 | 2.0 | 0.00 | 0.00 | 0.00 | 81 | 1010.0 |
| 20260830200349 | 64 | 329 | 2.0 | 2.0 | 0.00 | 0.00 | 0.00 | 82 | 1010.0 |
| 20260830195839 | 65 | 338 | 4.0 | 5.0 | 0.00 | 0.00 | 0.00 | 80 | 1010.0 |
| 20260830195338 | 65 | 337 | 1.0 | 1.0 | 0.00 | 0.00 | 0.00 | 80 | 1009.9 |
| 20260830194837 | 64 | 341 | 3.0 | 3.0 | 0.00 | 0.00 | 0.00 | 81 | 1010.0 |
| 20260830194330 | 64 | 328 | 2.0 | 2.0 | 0.00 | 0.00 | 0.00 | 82 | 1009.9 |
| 20260830193825 | 63 | 338 | 3.0 | 3.0 | 0.00 | 0.00 | 0.00 | 82 | 1009.9 |
| 20260830193319 | 65 | 309 | 3.0 | 3.0 | 0.00 | 0.00 | 0.00 | 80 | 1010.1 |
| 20260830192816 | 64 | 336 | 2.0 | 2.0 | 0.00 | 0.00 | 0.00 | 81 | 1010.2 |
| 20260830192315 | 64 | 344 | 2.0 | 2.0 | 0.00 | 0.00 | 0.00 | 81 | 1010.0 |
| 20260830191811 | 64 | 345 | 2.0 | 3.0 | 0.00 | 0.00 | 0.00 | 80 | 1009.9 |
| 20260830191310 | 65 | 338 | 1.0 | 1.0 | 0.00 | 0.00 | 0.00 | 79 | 1010.0 |
| 20260830190806 | 65 | 334 | 2.0 | 2.0 | 0.00 | 0.00 | 0.00 | 79 | 1009.8 |
| 20260830190301 | 65 | 329 | 2.0 | 2.0 | 0.00 | 0.00 | 0.00 | 81 | 1010.2 |
| 20260830185800 | 66 | 322 | 2.0 | 2.0 | 0.00 | 0.00 | 0.00 | 79 | 1009.9 |
| 20260830185255 | 66 | 323 | 2.0 | 2.0 | 0.00 | 0.00 | 0.00 | 79 | 1010.1 |
| 20260830184755 | 65 | 344 | 1.0 | 2.0 | 0.00 | 0.00 | 0.00 | 79 | 1010.1 |
| 20260830184254 | 65 | 351 | 1.0 | 1.0 | 0.00 | 0.00 | 0.00 | 79 | 1010.1 |
| 20260830183749 | 65 | 353 | 1.0 | 1.0 | 0.00 | 0.00 | 0.00 | 79 | 1010.0 |
| 20260830183244 | 65 | 334 | 1.0 | 2.0 | 0.00 | 0.00 | 0.00 | 80 | 1010.1 |
| 20260830182739 | 64 | 345 | 3.0 | 3.0 | 0.00 | 0.00 | 0.00 | 81 | 1010.0 |
| 20260830182235 | 64 | 359 | 1.0 | 2.0 | 0.00 | 0.00 | 0.00 | 80 | 1010.0 |
| 20260830181731 | 64 | 347 | 1.0 | 1.0 | 0.00 | 0.00 | 0.00 | 80 | 1010.2 |
| 20260830181226 | 64 | 336 | 2.0 | 2.0 | 0.00 | 0.00 | 0.00 | 80 | 1010.2 |
| 20260830180725 | 65 | 338 | 1.0 | 2.0 | 0.00 | 0.00 | 0.00 | 79 | 1010.2 |
| 20260830180220 | 66 | 315 | 1.0 | 2.0 | 0.00 | 0.00 | 0.00 | 77 | 1010.2 |
| 20260830175714 | 64 | 9 | 1.0 | 1.0 | 0.00 | 0.00 | 0.00 | 79 | 1010.0 |
| 20260830175209 | 64 | 349 | 1.0 | 1.0 | 0.00 | 0.00 | 0.00 | 79 | 1010.1 |
| 20260830174704 | 65 | 6 | 1.0 | 1.0 | 0.00 | 0.00 | 0.00 | 79 | 1010.1 |
| 20260830174200 | 65 | 6 | 0.0 | 1.0 | 0.00 | 0.00 | 0.00 | 78 | 1010.0 |
| 20260830173659 | 65 | 4 | 1.0 | 1.0 | 0.00 | 0.00 | 0.00 | 78 | 1009.9 |
| 20260830173159 | 64 | 6 | 0.0 | 0.0 | 0.00 | 0.00 | 0.00 | 80 | 1010.2 |
| 20260830172656 | 62 | 0 | 1.0 | 1.0 | 0.00 | 0.00 | 0.00 | 82 | 1010.3 |
| 20260830172153 | 62 | 4 | 1.0 | 1.0 | 0.00 | 0.00 | 0.00 | 82 | 1010.1 |
| 20260830171648 | 62 | 343 | 1.0 | 1.0 | 0.00 | 0.00 | 0.00 | 82 | 1010.1 |
| 20260830171143 | 61 | 6 | 0.0 | 0.0 | 0.00 | 0.00 | 0.00 | 84 | 1010.0 |
| 20260830170638 | 61 | 355 | 1.0 | 1.0 | 0.00 | 0.00 | 0.00 | 83 | 1010.2 |
| 20260830170137 | 62 | 6 | 0.0 | 0.0 | 0.00 | 0.00 | 0.00 | 83 | 1010.1 |
| 20260830165632 | 61 | 5 | 0.0 | 0.0 | 0.00 | 0.00 | 0.00 | 84 | 1010.1 |
| 20260830165127 | 61 | 40 | 0.0 | 0.0 | 0.00 | 0.00 | 0.00 | 83 | 1010.3 |
| 20260830164624 | 59 | 31 | 0.0 | 0.0 | 0.00 | 0.00 | 0.00 | 88 | 1010.0 |
| 20260830164119 | 59 | 15 | 0.0 | 0.0 | 0.00 | 0.00 | 0.00 | 87 | 1010.3 |
| 20260830163616 | 57 | 3 | 0.0 | 0.0 | 0.00 | 0.00 | 0.00 | 91 | 1010.5 |
| 20260830163116 | 56 | 353 | 0.0 | 0.0 | 0.00 | 0.00 | 0.00 | 92 | 1010.5 |
| 20260830162611 | 56 | 2 | 0.0 | 0.0 | 0.00 | 0.00 | 0.00 | 94 | 1010.2 |
| 20260830162106 | 55 | 3 | 0.0 | 0.0 | 0.00 | 0.00 | 0.00 | 95 | 1010.2 |
| 20260830161601 | 55 | 5 | 0.0 | 0.0 | 0.00 | 0.00 | 0.00 | 96 | 1010.2 |
| 20260830161055 | 54 | 4 | 0.0 | 0.0 | 0.00 | 0.00 | 0.00 | 97 | 1010.3 |
| 20260830160552 | 54 | 32 | 0.0 | 0.0 | 0.00 | 0.00 | 0.00 | 98 | 1010.6 |
| 20260830160047 | 54 | 32 | 0.0 | 0.0 | 0.00 | 0.00 | 0.00 | 98 | 1010.5 |
| 20260830155543 | 53 | 32 | 0.0 | 0.0 | 0.00 | 0.00 | 0.00 | 99 | 1010.5 |
| 20260830155038 | 53 | 33 | 0.0 | 0.0 | 0.00 | 0.00 | 0.00 | 99 | 1010.4 |
| 20260830154533 | 52 | 32 | 0.0 | 0.0 | 0.00 | 0.00 | 0.00 | 99 | 1010.5 |
| 20260830154030 | 52 | 32 | 0.0 | 0.0 | 0.00 | 0.00 | 0.00 | 99 | 1010.5 |
| 20260830153526 | 51 | 32 | 0.0 | 0.0 | 0.00 | 0.00 | 0.00 | 99 | 1010.6 |
| 20260830153025 | 51 | 33 | 0.0 | 0.0 | 0.00 | 0.00 | 0.00 | 99 | 1010.6 |
| 20260830152520 | 51 | 32 | 0.0 | 0.0 | 0.00 | 0.00 | 0.00 | 99 | 1010.3 |
| 20260830152019 | 50 | 32 | 0.0 | 0.0 | 0.00 | 0.00 | 0.00 | 99 | 1010.5 |
| 20260830151519 | 50 | 32 | 0.0 | 0.0 | 0.00 | 0.00 | 0.00 | 99 | 1010.3 |
| 20260830151014 | 50 | 32 | 0.0 | 0.0 | 0.00 | 0.00 | 0.00 | 99 | 1010.3 |
| 20260830150513 | 49 | 32 | 0.0 | 0.0 | 0.00 | 0.00 | 0.00 | 99 | 1010.3 |
| 20260830150008 | 49 | 32 | 0.0 | 0.0 | 0.00 | 0.00 | 0.00 | 99 | 1010.3 |
| 20260830145507 | 49 | 32 | 0.0 | 0.0 | 0.00 | 0.00 | 0.00 | 99 | 1010.5 |
| 20260830145003 | 49 | 33 | 0.0 | 0.0 | 0.00 | 0.00 | 0.00 | 99 | 1010.3 |
| 20260830144459 | 49 | 32 | 0.0 | 0.0 | 0.00 | 0.00 | 0.00 | 99 | 1010.3 |
| 20260830143954 | 49 | 32 | 0.0 | 0.0 | 0.00 | 0.00 | 0.00 | 99 | 1010.2 |
| 20260830143450 | 49 | 32 | 0.0 | 0.0 | 0.00 | 0.00 | 0.00 | 99 | 1010.2 |
| 20260830142948 | 49 | 32 | 0.0 | 0.0 | 0.00 | 0.00 | 0.00 | 99 | 1010.2 |
| 20260830142443 | 49 | 32 | 0.0 | 0.0 | 0.00 | 0.00 | 0.00 | 99 | 1010.2 |
| 20260830141938 | 49 | 32 | 0.0 | 0.0 | 0.00 | 0.00 | 0.00 | 99 | 1010.4 |
| 20260830141433 | 49 | 32 | 0.0 | 0.0 | 0.00 | 0.00 | 0.00 | 99 | 1010.2 |
| 20260830140928 | 49 | 32 | 0.0 | 0.0 | 0.00 | 0.00 | 0.00 | 99 | 1010.2 |
| 20260830140424 | 49 | 32 | 0.0 | 0.0 | 0.00 | 0.00 | 0.00 | 99 | 1010.0 |
| 20260830135922 | 49 | 32 | 0.0 | 0.0 | 0.00 | 0.00 | 0.00 | 99 | 1010.2 |
| 20260830135418 | 49 | 32 | 0.0 | 0.0 | 0.00 | 0.00 | 0.00 | 99 | 1010.0 |
| 20260830134914 | 49 | 31 | 0.0 | 0.0 | 0.00 | 0.00 | 0.00 | 99 | 1010.1 |
| 20260830134409 | 49 | 31 | 0.0 | 0.0 | 0.00 | 0.00 | 0.00 | 99 | 1010.2 |
| 20260830133905 | 49 | 30 | 0.0 | 0.0 | 0.00 | 0.00 | 0.00 | 99 | 1010.2 |
| 20260830133401 | 49 | 30 | 0.0 | 0.0 | 0.00 | 0.00 | 0.00 | 99 | 1010.1 |
| 20260830132855 | 49 | 30 | 0.0 | 0.0 | 0.00 | 0.00 | 0.00 | 99 | 1010.0 |
| 20260830132351 | 49 | 29 | 0.0 | 0.0 | 0.00 | 0.00 | 0.00 | 99 | 1010.0 |
| 20260830131850 | 49 | 29 | 0.0 | 0.0 | 0.00 | 0.00 | 0.00 | 99 | 1010.2 |
| 20260830131345 | 50 | 29 | 0.0 | 0.0 | 0.00 | 0.00 | 0.00 | 99 | 1010.1 |
| 20260830130839 | 50 | 28 | 0.0 | 0.0 | 0.00 | 0.00 | 0.00 | 99 | 1010.3 |
| 20260830130336 | 50 | 28 | 0.0 | 0.0 | 0.00 | 0.00 | 0.00 | 99 | 1010.2 |
| 20260830125834 | 50 | 28 | 0.0 | 0.0 | 0.00 | 0.00 | 0.00 | 99 | 1010.2 |
| 20260830125330 | 50 | 28 | 0.0 | 0.0 | 0.00 | 0.00 | 0.00 | 99 | 1010.1 |
| 20260830124827 | 50 | 28 | 0.0 | 0.0 | 0.00 | 0.00 | 0.00 | 99 | 1010.3 |
| 20260830124322 | 50 | 28 | 0.0 | 0.0 | 0.00 | 0.00 | 0.00 | 99 | 1010.1 |
| 20260830123819 | 50 | 28 | 0.0 | 0.0 | 0.00 | 0.00 | 0.00 | 99 | 1010.3 |
| 20260830123315 | 50 | 28 | 0.0 | 0.0 | 0.00 | 0.00 | 0.00 | 99 | 1010.3 |
| 20260830122813 | 50 | 28 | 0.0 | 0.0 | 0.00 | 0.00 | 0.00 | 99 | 1010.2 |
| 20260830122308 | 51 | 28 | 0.0 | 0.0 | 0.00 | 0.00 | 0.00 | 99 | 1010.1 |
| 20260830121803 | 51 | 28 | 0.0 | 0.0 | 0.00 | 0.00 | 0.00 | 98 | 1010.1 |
| 20260830121302 | 51 | 25 | 0.0 | 0.0 | 0.00 | 0.00 | 0.00 | 99 | 1010.1 |
| 20260830120757 | 51 | 17 | 0.0 | 0.0 | 0.00 | 0.00 | 0.00 | 98 | 1010.1 |
| 20260830120253 | 51 | 12 | 0.0 | 0.0 | 0.00 | 0.00 | 0.00 | 98 | 1010.1 |
| 20260830115750 | 51 | 11 | 0.0 | 0.0 | 0.00 | 0.00 | 0.00 | 98 | 1010.0 |
| 20260830115245 | 51 | 12 | 0.0 | 0.0 | 0.00 | 0.00 | 0.00 | 98 | 1010.2 |
| 20260830114741 | 52 | 12 | 0.0 | 0.0 | 0.00 | 0.00 | 0.00 | 98 | 1010.2 |
| 20260830114236 | 52 | 12 | 0.0 | 0.0 | 0.00 | 0.00 | 0.00 | 98 | 1010.2 |
| 20260830113731 | 52 | 12 | 0.0 | 0.0 | 0.00 | 0.00 | 0.00 | 98 | 1010.0 |
| 20260830113226 | 52 | 12 | 0.0 | 0.0 | 0.00 | 0.00 | 0.00 | 98 | 1010.1 |
| 20260830112722 | 52 | 12 | 0.0 | 0.0 | 0.00 | 0.00 | 0.00 | 97 | 1010.1 |
| 20260830112218 | 53 | 11 | 0.0 | 0.0 | 0.00 | 0.00 | 0.00 | 97 | 1010.1 |
| 20260830111714 | 53 | 11 | 0.0 | 0.0 | 0.00 | 0.00 | 0.00 | 97 | 1010.1 |
| 20260830111209 | 53 | 12 | 0.0 | 0.0 | 0.00 | 0.00 | 0.00 | 97 | 1010.0 |
| 20260830110703 | 53 | 11 | 0.0 | 0.0 | 0.00 | 0.00 | 0.00 | 96 | 1010.3 |
| 20260830110200 | 53 | 11 | 0.0 | 0.0 | 0.00 | 0.00 | 0.00 | 96 | 1010.2 |
| 20260830105659 | 54 | 11 | 0.0 | 0.0 | 0.00 | 0.00 | 0.00 | 95 | 1010.3 |
| 20260830105154 | 54 | 11 | 0.0 | 0.0 | 0.00 | 0.00 | 0.00 | 95 | 1010.2 |
| 20260830104651 | 54 | 12 | 0.0 | 0.0 | 0.00 | 0.00 | 0.00 | 94 | 1010.2 |
| 20260830104148 | 55 | 13 | 0.0 | 0.0 | 0.00 | 0.00 | 0.00 | 93 | 1010.1 |
| 20260830103646 | 55 | 21 | 0.0 | 0.0 | 0.00 | 0.00 | 0.00 | 93 | 1010.2 |
| 20260830103142 | 55 | 28 | 0.0 | 0.0 | 0.00 | 0.00 | 0.00 | 93 | 1010.3 |
| 20260830102641 | 55 | 27 | 0.0 | 0.0 | 0.00 | 0.00 | 0.00 | 93 | 1010.3 |
| 20260830102137 | 55 | 26 | 0.0 | 0.0 | 0.00 | 0.00 | 0.00 | 92 | 1010.4 |
| 20260830101633 | 55 | 13 | 0.0 | 0.0 | 0.00 | 0.00 | 0.00 | 92 | 1010.4 |
| 20260830101132 | 56 | 19 | 0.0 | 0.0 | 0.00 | 0.00 | 0.00 | 92 | 1010.4 |
| 20260830100627 | 56 | 20 | 0.0 | 0.0 | 0.00 | 0.00 | 0.00 | 92 | 1010.4 |
| 20260830100126 | 56 | 26 | 0.0 | 0.0 | 0.00 | 0.00 | 0.00 | 92 | 1010.3 |
| 20260830095620 | 56 | 30 | 0.0 | 0.0 | 0.00 | 0.00 | 0.00 | 92 | 1010.7 |
| 20260830095117 | 56 | 57 | 0.0 | 0.0 | 0.00 | 0.00 | 0.00 | 93 | 1010.7 |
| 20260830094613 | 56 | 52 | 0.0 | 0.0 | 0.00 | 0.00 | 0.00 | 93 | 1010.7 |
| 20260830094108 | 56 | 52 | 0.0 | 0.0 | 0.00 | 0.00 | 0.00 | 93 | 1010.6 |
| 20260830093603 | 56 | 54 | 0.0 | 0.0 | 0.00 | 0.00 | 0.00 | 93 | 1010.9 |
| 20260830093100 | 56 | 34 | 0.0 | 0.0 | 0.00 | 0.00 | 0.00 | 93 | 1010.3 |
| 20260830092554 | 56 | 34 | 0.0 | 0.0 | 0.00 | 0.00 | 0.00 | 93 | 1010.6 |
| 20260830092051 | 56 | 25 | 0.0 | 0.0 | 0.00 | 0.00 | 0.00 | 93 | 1010.9 |
| 20260830091546 | 56 | 23 | 0.0 | 0.0 | 0.00 | 0.00 | 0.00 | 93 | 1010.7 |
| 20260830091045 | 56 | 21 | 0.0 | 0.0 | 0.00 | 0.00 | 0.00 | 94 | 1010.8 |
| 20260830090540 | 56 | 14 | 0.0 | 0.0 | 0.00 | 0.00 | 0.00 | 93 | 1010.9 |
| 20260830090035 | 56 | 49 | 0.0 | 0.0 | 0.00 | 0.00 | 0.00 | 93 | 1010.9 |
| 20260830085534 | 56 | 48 | 0.0 | 0.0 | 0.00 | 0.00 | 0.00 | 93 | 1011.0 |
| 20260830085031 | 56 | 48 | 0.0 | 0.0 | 0.00 | 0.00 | 0.00 | 93 | 1011.0 |
| 20260830084526 | 56 | 41 | 0.0 | 0.0 | 0.00 | 0.00 | 0.00 | 93 | 1011.0 |
| 20260830084021 | 56 | 27 | 0.0 | 0.0 | 0.00 | 0.00 | 0.00 | 93 | 1011.2 |
| 20260830083516 | 56 | 22 | 0.0 | 0.0 | 0.00 | 0.00 | 0.00 | 93 | 1011.0 |
| 20260830083011 | 56 | 20 | 0.0 | 0.0 | 0.00 | 0.00 | 0.00 | 93 | 1011.0 |
| 20260830082506 | 56 | 4 | 0.0 | 0.0 | 0.00 | 0.00 | 0.00 | 93 | 1010.9 |
| 20260830082001 | 56 | 32 | 0.0 | 0.0 | 0.00 | 0.00 | 0.00 | 93 | 1011.1 |
| 20260830081456 | 56 | 31 | 0.0 | 0.0 | 0.00 | 0.00 | 0.00 | 92 | 1011.0 |
| 20260830080955 | 56 | 45 | 0.0 | 0.0 | 0.00 | 0.00 | 0.00 | 93 | 1011.1 |
| 20260830080452 | 56 | 39 | 0.0 | 0.0 | 0.00 | 0.00 | 0.00 | 94 | 1011.3 |
| 20260830075951 | 56 | 16 | 0.0 | 0.0 | 0.00 | 0.00 | 0.00 | 93 | 1011.2 |
| 20260830075446 | 56 | 17 | 0.0 | 0.0 | 0.00 | 0.00 | 0.00 | 94 | 1011.2 |
| 20260830074941 | 56 | 18 | 0.0 | 0.0 | 0.00 | 0.00 | 0.00 | 94 | 1011.3 |
| 20260830074437 | 55 | 25 | 0.0 | 0.0 | 0.00 | 0.00 | 0.00 | 94 | 1011.3 |
| 20260830073932 | 55 | 25 | 0.0 | 0.0 | 0.00 | 0.00 | 0.00 | 94 | 1011.4 |
| 20260830073428 | 55 | 24 | 0.0 | 0.0 | 0.00 | 0.00 | 0.00 | 94 | 1011.3 |
| 20260830072923 | 55 | 24 | 0.0 | 0.0 | 0.00 | 0.00 | 0.00 | 94 | 1011.5 |
| 20260830072419 | 55 | 24 | 0.0 | 0.0 | 0.00 | 0.00 | 0.00 | 95 | 1011.4 |
| 20260830071919 | 55 | 14 | 0.0 | 0.0 | 0.00 | 0.00 | 0.00 | 95 | 1011.8 |
| 20260830071414 | 55 | 14 | 0.0 | 0.0 | 0.00 | 0.00 | 0.00 | 95 | 1011.7 |
| 20260830070912 | 55 | 13 | 0.0 | 0.0 | 0.00 | 0.00 | 0.00 | 95 | 1011.7 |
| 20260830070407 | 55 | 13 | 0.0 | 0.0 | 0.00 | 0.00 | 0.00 | 95 | 1011.8 |
| 20260830065906 | 55 | 25 | 0.0 | 0.0 | 0.00 | 0.00 | 0.00 | 95 | 1011.8 |
| 20260830065401 | 55 | 7 | 0.0 | 0.0 | 0.00 | 0.00 | 0.00 | 95 | 1012.0 |
| 20260830064859 | 55 | 8 | 0.0 | 0.0 | 0.00 | 0.00 | 0.00 | 95 | 1011.9 |
| 20260830064354 | 55 | 16 | 0.0 | 0.0 | 0.00 | 0.00 | 0.00 | 95 | 1011.7 |
| 20260830063848 | 54 | 343 | 0.0 | 0.0 | 0.00 | 0.00 | 0.00 | 95 | 1011.9 |
| 20260830063344 | 54 | 349 | 0.0 | 0.0 | 0.00 | 0.00 | 0.00 | 95 | 1012.1 |
| 20260830062838 | 54 | 23 | 0.0 | 0.0 | 0.00 | 0.00 | 0.00 | 95 | 1011.9 |
| 20260830062337 | 54 | 32 | 0.0 | 0.0 | 0.00 | 0.00 | 0.00 | 96 | 1012.0 |
| 20260830061833 | 54 | 20 | 0.0 | 0.0 | 0.00 | 0.00 | 0.00 | 96 | 1012.0 |
| 20260830061332 | 54 | 20 | 0.0 | 0.0 | 0.00 | 0.00 | 0.00 | 96 | 1012.3 |
| 20260830060829 | 54 | 21 | 0.0 | 0.0 | 0.00 | 0.00 | 0.00 | 96 | 1012.1 |
| 20260830060325 | 53 | 20 | 0.0 | 0.0 | 0.00 | 0.00 | 0.00 | 97 | 1012.2 |
| 20260830055825 | 53 | 21 | 0.0 | 0.0 | 0.00 | 0.00 | 0.00 | 97 | 1012.4 |
| 20260830055321 | 53 | 21 | 0.0 | 0.0 | 0.00 | 0.00 | 0.00 | 97 | 1012.5 |
| 20260830054821 | 53 | 21 | 0.0 | 0.0 | 0.00 | 0.00 | 0.00 | 97 | 1012.7 |
| 20260830054317 | 53 | 21 | 0.0 | 0.0 | 0.00 | 0.00 | 0.00 | 97 | 1012.5 |
| 20260830053813 | 53 | 20 | 0.0 | 0.0 | 0.00 | 0.00 | 0.00 | 97 | 1012.4 |
| 20260830053308 | 53 | 21 | 0.0 | 0.0 | 0.00 | 0.00 | 0.00 | 97 | 1012.6 |
| 20260830052806 | 53 | 21 | 0.0 | 0.0 | 0.00 | 0.00 | 0.00 | 97 | 1012.7 |
| 20260830052306 | 53 | 15 | 0.0 | 0.0 | 0.00 | 0.00 | 0.00 | 97 | 1012.8 |
| 20260830051758 | 53 | 348 | 0.0 | 0.0 | 0.00 | 0.00 | 0.00 | 97 | 1012.6 |
| 20260830051253 | 53 | 349 | 0.0 | 0.0 | 0.00 | 0.00 | 0.00 | 97 | 1012.8 |
| 20260830050751 | 53 | 348 | 0.0 | 0.0 | 0.00 | 0.00 | 0.00 | 97 | 1012.7 |
| 20260830050247 | 53 | 348 | 0.0 | 0.0 | 0.00 | 0.00 | 0.00 | 97 | 1012.7 |
| 20260830045744 | 54 | 349 | 0.0 | 0.0 | 0.00 | 0.00 | 0.00 | 97 | 1012.8 |
| 20260830045240 | 54 | 350 | 0.0 | 0.0 | 0.00 | 0.00 | 0.00 | 97 | 1012.6 |
| 20260830044739 | 54 | 354 | 0.0 | 0.0 | 0.00 | 0.00 | 0.00 | 96 | 1013.1 |
| 20260830044235 | 54 | 353 | 0.0 | 0.0 | 0.00 | 0.00 | 0.00 | 96 | 1012.8 |
| 20260830043730 | 54 | 1 | 0.0 | 0.0 | 0.00 | 0.00 | 0.00 | 96 | 1012.8 |
| 20260830043224 | 54 | 6 | 0.0 | 0.0 | 0.00 | 0.00 | 0.00 | 96 | 1012.8 |
| 20260830042722 | 55 | 10 | 0.0 | 0.0 | 0.00 | 0.00 | 0.00 | 96 | 1013.0 |
| 20260830042217 | 55 | 11 | 0.0 | 0.0 | 0.00 | 0.00 | 0.00 | 95 | 1012.7 |
| 20260830041715 | 55 | 41 | 0.0 | 0.0 | 0.00 | 0.00 | 0.00 | 96 | 1012.9 |
| 20260830041215 | 55 | 27 | 0.0 | 0.0 | 0.00 | 0.00 | 0.00 | 95 | 1012.8 |
| 20260830040711 | 55 | 28 | 0.0 | 0.0 | 0.00 | 0.00 | 0.00 | 95 | 1012.5 |
| 20260830040207 | 55 | 31 | 0.0 | 0.0 | 0.00 | 0.00 | 0.00 | 95 | 1012.8 |
| 20260830035705 | 55 | 23 | 0.0 | 0.0 | 0.00 | 0.00 | 0.00 | 95 | 1012.6 |
| 20260830035200 | 56 | 14 | 0.0 | 0.0 | 0.00 | 0.00 | 0.00 | 94 | 1012.7 |
| 20260830034655 | 56 | 28 | 0.0 | 0.0 | 0.00 | 0.00 | 0.00 | 93 | 1012.7 |
| 20260830034154 | 56 | 41 | 0.0 | 0.0 | 0.00 | 0.00 | 0.00 | 93 | 1012.5 |
| 20260830033651 | 56 | 35 | 0.0 | 0.0 | 0.00 | 0.00 | 0.00 | 93 | 1012.6 |
| 20260830033145 | 57 | 35 | 0.0 | 0.0 | 0.00 | 0.00 | 0.00 | 92 | 1012.5 |
| 20260830032645 | 57 | 33 | 0.0 | 0.0 | 0.00 | 0.00 | 0.00 | 92 | 1012.5 |
| 20260830032140 | 57 | 31 | 0.0 | 0.0 | 0.00 | 0.00 | 0.00 | 91 | 1012.4 |
| 20260830031635 | 58 | 29 | 0.0 | 0.0 | 0.00 | 0.00 | 0.00 | 90 | 1012.4 |
| 20260830031130 | 58 | 42 | 0.0 | 1.0 | 0.00 | 0.00 | 0.00 | 90 | 1012.2 |
| 20260830030626 | 58 | 69 | 1.0 | 1.0 | 0.00 | 0.00 | 0.00 | 90 | 1012.4 |
| 20260830030121 | 58 | 52 | 1.0 | 1.0 | 0.00 | 0.00 | 0.00 | 89 | 1012.5 |
| 20260830025619 | 58 | 69 | 1.0 | 1.0 | 0.00 | 0.00 | 0.00 | 89 | 1012.3 |
| 20260830025114 | 59 | 13 | 0.0 | 0.0 | 0.00 | 0.00 | 0.00 | 89 | 1012.2 |
| 20260830024609 | 59 | 356 | 0.0 | 0.0 | 0.00 | 0.00 | 0.00 | 88 | 1012.3 |
| 20260830024108 | 59 | 350 | 0.0 | 0.0 | 0.00 | 0.00 | 0.00 | 88 | 1012.3 |
| 20260830023606 | 59 | 323 | 1.0 | 1.0 | 0.00 | 0.00 | 0.00 | 87 | 1012.4 |
| 20260830023101 | 60 | 318 | 0.0 | 1.0 | 0.00 | 0.00 | 0.00 | 86 | 1012.2 |
| 20260830022555 | 60 | 346 | 0.0 | 0.0 | 0.00 | 0.00 | 0.00 | 86 | 1012.2 |